| time (UTC) | temp F | wind direction | speed knots | gust knots | rain 1hr in | rain 24hr in | rain mn in | humidity % | barometer mb |
| 20260901092003 | 74 | 143 | 0.9 | 1.7 | 0.00 | 0.05 | 0.00 | 99 | 1015.7 |
| 20260901091003 | 74 | 179 | 0.9 | 1.7 | 0.00 | 0.09 | 0.00 | 99 | 1015.6 |
| 20260901090003 | 74 | 130 | 0.9 | 1.7 | 0.00 | 0.09 | 0.00 | 99 | 1015.4 |
| 20260901085003 | 74 | 129 | 0.9 | 1.7 | 0.00 | 0.09 | 0.00 | 99 | 1015.4 |
| 20260901084004 | 74 | 193 | 1.7 | 4.3 | 0.00 | 0.09 | 0.00 | 99 | 1015.4 |
| 20260901083004 | 74 | 180 | 1.7 | 2.6 | 0.00 | 0.09 | 0.00 | 98 | 1015.3 |
| 20260901081004 | 74 | 196 | 0.9 | 2.6 | 0.00 | 0.09 | 0.00 | 98 | 1015.3 |
| 20260901075003 | 74 | 191 | 1.7 | 2.6 | 0.00 | 0.09 | 0.00 | 98 | 1015.3 |
| 20260901074003 | 74 | 197 | 0.9 | 1.7 | 0.00 | 0.09 | 0.00 | 98 | 1015.3 |
| 20260901072003 | 75 | 184 | 0.9 | 1.7 | 0.00 | 0.09 | 0.00 | 97 | 1015.3 |
| 20260901070003 | 75 | 128 | 0.0 | 2.6 | 0.00 | 0.09 | 0.00 | 97 | 1015.1 |
| 20260901065003 | 75 | 131 | 0.9 | 1.7 | 0.00 | 0.09 | 0.00 | 97 | 1015.1 |
| 20260901064004 | 75 | 124 | 0.0 | 2.6 | 0.00 | 0.09 | 0.00 | 96 | 1015.1 |
| 20260901063004 | 76 | 167 | 1.7 | 2.6 | 0.00 | 0.09 | 0.00 | 96 | 1015.0 |
| 20260901062003 | 76 | 109 | 0.9 | 1.7 | 0.00 | 0.09 | 0.00 | 96 | 1015.3 |
| 20260901061003 | 76 | 125 | 0.0 | 2.6 | 0.00 | 0.10 | 0.00 | 95 | 1015.5 |
| 20260901060003 | 76 | 176 | 1.7 | 2.6 | 0.00 | 0.11 | 0.00 | 95 | 1015.3 |
| 20260901054004 | 76 | 157 | 0.9 | 2.6 | 0.00 | 0.11 | 0.00 | 95 | 1015.3 |
| 20260901053003 | 77 | 180 | 0.0 | 2.6 | 0.00 | 0.11 | 0.00 | 94 | 1015.3 |
| 20260901052004 | 76 | 153 | 0.9 | 4.3 | 0.00 | 0.11 | 0.00 | 94 | 1015.1 |
| 20260901051006 | 77 | 165 | 0.9 | 2.6 | 0.00 | 0.11 | 0.00 | 94 | 1015.0 |
| 20260901050004 | 77 | 193 | 0.0 | 2.6 | 0.00 | 0.11 | 0.00 | 93 | 1015.0 |
| 20260901045004 | 77 | 164 | 0.9 | 4.3 | 0.00 | 0.11 | 0.11 | 93 | 1015.3 |
| 20260901044004 | 78 | 210 | 1.7 | 5.2 | 0.00 | 0.11 | 0.11 | 93 | 1015.3 |
| 20260901043003 | 78 | 209 | 1.7 | 5.2 | 0.00 | 0.11 | 0.11 | 92 | 1015.3 |
| 20260901042003 | 78 | 200 | 0.9 | 4.3 | 0.00 | 0.11 | 0.11 | 92 | 1015.3 |
| 20260901041003 | 78 | 221 | 1.7 | 2.6 | 0.00 | 0.11 | 0.11 | 92 | 1015.3 |
| 20260901040003 | 79 | 216 | 1.7 | 4.3 | 0.00 | 0.11 | 0.11 | 92 | 1015.4 |
| 20260901035003 | 79 | 188 | 1.7 | 5.2 | 0.00 | 0.11 | 0.11 | 91 | 1015.3 |
| 20260901034004 | 79 | 197 | 1.7 | 5.2 | 0.00 | 0.11 | 0.11 | 91 | 1015.2 |
| 20260901033003 | 79 | 202 | 1.7 | 6.1 | 0.00 | 0.11 | 0.11 | 90 | 1015.0 |
| 20260901032004 | 79 | 160 | 0.9 | 4.3 | 0.00 | 0.11 | 0.11 | 90 | 1015.3 |
| 20260901030004 | 80 | 204 | 2.6 | 5.2 | 0.00 | 0.11 | 0.11 | 90 | 1015.2 |
| 20260901025004 | 80 | 183 | 1.7 | 5.2 | 0.00 | 0.11 | 0.11 | 89 | 1015.3 |
| 20260901024003 | 80 | 189 | 2.6 | 5.2 | 0.00 | 0.11 | 0.11 | 89 | 1015.1 |
| 20260901022004 | 81 | 198 | 0.9 | 5.2 | 0.00 | 0.11 | 0.11 | 88 | 1015.2 |
| 20260901021004 | 81 | 196 | 2.6 | 6.1 | 0.00 | 0.11 | 0.11 | 87 | 1015.4 |
| 20260901020003 | 81 | 219 | 1.7 | 7.8 | 0.00 | 0.11 | 0.11 | 86 | 1015.4 |
| 20260901015003 | 82 | 211 | 4.3 | 6.1 | 0.00 | 0.11 | 0.11 | 86 | 1015.1 |
| 20260901014004 | 82 | 211 | 3.5 | 7.0 | 0.00 | 0.11 | 0.11 | 85 | 1015.2 |
| 20260901013003 | 82 | 222 | 2.6 | 7.8 | 0.00 | 0.11 | 0.11 | 84 | 1015.0 |
| 20260901012004 | 83 | 216 | 2.6 | 5.2 | 0.00 | 0.11 | 0.11 | 83 | 1014.7 |
| 20260901010003 | 83 | 204 | 1.7 | 7.8 | 0.00 | 0.11 | 0.11 | 82 | 1014.6 |
| 20260901004004 | 84 | 205 | 3.5 | 6.1 | 0.00 | 0.11 | 0.11 | 81 | 1014.3 |
| 20260901003004 | 84 | 192 | 2.6 | 7.0 | 0.00 | 0.11 | 0.11 | 80 | 1014.3 |
| 20260901002004 | 85 | 197 | 2.6 | 7.0 | 0.00 | 0.11 | 0.11 | 79 | 1014.1 |
| 20260901001003 | 85 | 181 | 1.7 | 4.3 | 0.00 | 0.11 | 0.11 | 77 | 1013.9 |
| 20260901000004 | 86 | 191 | 1.7 | 4.3 | 0.00 | 0.11 | 0.11 | 76 | 1013.8 |
| 20260831235003 | 86 | 232 | 1.7 | 5.2 | 0.00 | 0.11 | 0.11 | 75 | 1013.8 |
| 20260831234003 | 86 | 187 | 1.7 | 4.3 | 0.00 | 0.11 | 0.11 | 75 | 1013.6 |
| 20260831233004 | 86 | 209 | 2.6 | 4.3 | 0.00 | 0.11 | 0.11 | 74 | 1013.6 |
| 20260831232003 | 87 | 164 | 0.9 | 2.6 | 0.00 | 0.11 | 0.11 | 74 | 1013.3 |
| 20260831225003 | 87 | 199 | 0.9 | 6.1 | 0.00 | 0.11 | 0.11 | 73 | 1013.3 |
| 20260831224005 | 88 | 123 | 1.7 | 2.6 | 0.00 | 0.11 | 0.11 | 72 | 1013.2 |
| 20260831223004 | 88 | 215 | 0.9 | 4.3 | 0.00 | 0.11 | 0.11 | 71 | 1013.2 |
| 20260831222004 | 88 | 258 | 1.7 | 5.2 | 0.00 | 0.11 | 0.11 | 71 | 1013.4 |
| 20260831221004 | 89 | 281 | 3.5 | 6.1 | 0.00 | 0.11 | 0.11 | 70 | 1013.2 |
| 20260831220003 | 89 | 290 | 2.6 | 7.8 | 0.00 | 0.11 | 0.11 | 70 | 1013.5 |
| 20260831215004 | 89 | 286 | 5.2 | 7.0 | 0.00 | 0.11 | 0.11 | 70 | 1013.5 |
| 20260831213003 | 89 | 277 | 1.7 | 7.8 | 0.00 | 0.11 | 0.11 | 68 | 1013.2 |
| 20260831212003 | 89 | 284 | 5.2 | 11.3 | 0.00 | 0.11 | 0.11 | 68 | 1013.2 |
| 20260831211003 | 91 | 236 | 4.3 | 7.8 | 0.00 | 0.11 | 0.11 | 65 | 1013.1 |
| 20260831205004 | 90 | 270 | 3.5 | 8.7 | 0.00 | 0.11 | 0.11 | 66 | 1013.2 |
| 20260831204004 | 90 | 291 | 4.3 | 8.7 | 0.00 | 0.11 | 0.11 | 67 | 1013.1 |
| 20260831203003 | 90 | 215 | 5.2 | 12.2 | 0.00 | 0.11 | 0.11 | 66 | 1013.3 |
| 20260831202003 | 90 | 280 | 1.7 | 8.7 | 0.00 | 0.11 | 0.11 | 67 | 1013.3 |
| 20260831201004 | 89 | 274 | 4.3 | 8.7 | 0.00 | 0.11 | 0.11 | 68 | 1013.5 |
| 20260831200004 | 89 | 234 | 4.3 | 12.2 | 0.00 | 0.11 | 0.11 | 69 | 1013.3 |
| 20260831195003 | 89 | 293 | 5.2 | 8.7 | 0.00 | 0.11 | 0.11 | 69 | 1013.3 |
| 20260831194004 | 88 | 239 | 2.6 | 12.2 | 0.00 | 0.11 | 0.11 | 68 | 1013.3 |
| 20260831193004 | 87 | 236 | 6.1 | 11.3 | 0.00 | 0.11 | 0.11 | 71 | 1013.3 |
| 20260831192004 | 87 | 291 | 7.0 | 11.3 | 0.00 | 0.11 | 0.11 | 70 | 1014.0 |
| 20260831191004 | 87 | 272 | 5.2 | 8.7 | 0.00 | 0.11 | 0.11 | 70 | 1013.5 |
| 20260831190004 | 87 | 277 | 4.3 | 6.1 | 0.00 | 0.11 | 0.11 | 70 | 1013.5 |
| 20260831185004 | 87 | 226 | 4.3 | 12.2 | 0.00 | 0.11 | 0.11 | 69 | 1013.7 |
| 20260831184003 | 87 | 238 | 2.6 | 7.8 | 0.00 | 0.11 | 0.11 | 68 | 1013.5 |
| 20260831183004 | 87 | 256 | 2.6 | 11.3 | 0.00 | 0.11 | 0.11 | 69 | 1013.5 |
| 20260831182004 | 87 | 229 | 5.2 | 7.8 | 0.00 | 0.11 | 0.11 | 69 | 1013.7 |
| 20260831181004 | 86 | 211 | 4.3 | 6.1 | 0.00 | 0.11 | 0.11 | 69 | 1013.6 |
| 20260831180003 | 86 | 247 | 2.6 | 10.4 | 0.00 | 0.11 | 0.11 | 70 | 1013.9 |
| 20260831175004 | 86 | 271 | 4.3 | 7.0 | 0.00 | 0.11 | 0.11 | 70 | 1013.8 |
| 20260831174003 | 84 | 251 | 4.3 | 11.3 | 0.00 | 0.11 | 0.11 | 71 | 1014.0 |
| 20260831173003 | 85 | 177 | 5.2 | 8.7 | 0.00 | 0.11 | 0.11 | 70 | 1013.8 |
| 20260831171003 | 85 | 202 | 4.3 | 10.4 | 0.00 | 0.11 | 0.11 | 69 | 1013.9 |
| 20260831165004 | 85 | 193 | 2.6 | 10.4 | 0.00 | 0.11 | 0.11 | 70 | 1013.9 |
| 20260831163004 | 84 | 199 | 3.5 | 11.3 | 0.00 | 0.11 | 0.11 | 71 | 1013.9 |
| 20260831161003 | 83 | 206 | 5.2 | 8.7 | 0.00 | 0.11 | 0.11 | 72 | 1014.1 |
| 20260831155003 | 82 | 196 | 4.3 | 11.3 | 0.00 | 0.11 | 0.11 | 73 | 1014.6 |
| 20260831154003 | 82 | 203 | 6.1 | 10.4 | 0.00 | 0.11 | 0.11 | 72 | 1014.3 |
| 20260831153003 | 81 | 262 | 5.2 | 8.7 | 0.00 | 0.11 | 0.11 | 73 | 1014.4 |
| 20260831152003 | 82 | 214 | 5.2 | 12.2 | 0.00 | 0.11 | 0.11 | 73 | 1014.4 |
| 20260831151003 | 81 | 212 | 5.2 | 7.8 | 0.00 | 0.11 | 0.11 | 75 | 1014.2 |
| 20260831150004 | 80 | 222 | 5.2 | 12.2 | 0.00 | 0.11 | 0.11 | 77 | 1014.6 |
| 20260831145004 | 80 | 177 | 5.2 | 7.8 | 0.00 | 0.11 | 0.11 | 78 | 1014.3 |
| 20260831144004 | 79 | 222 | 6.1 | 8.7 | 0.00 | 0.11 | 0.11 | 79 | 1014.3 |
| 20260831143003 | 79 | 203 | 2.6 | 7.8 | 0.00 | 0.11 | 0.11 | 80 | 1014.3 |
| 20260831142003 | 78 | 191 | 2.6 | 7.0 | 0.00 | 0.11 | 0.11 | 82 | 1014.2 |
| 20260831141003 | 78 | 133 | 1.7 | 4.3 | 0.00 | 0.11 | 0.11 | 83 | 1014.5 |
| 20260831140003 | 77 | 176 | 1.7 | 4.3 | 0.00 | 0.11 | 0.11 | 85 | 1014.9 |
| 20260831135004 | 76 | 140 | 1.7 | 4.3 | 0.00 | 0.11 | 0.11 | 87 | 1014.9 |
| 20260831134004 | 75 | 99 | 1.7 | 5.2 | 0.00 | 0.11 | 0.11 | 90 | 1014.9 |
| 20260831133004 | 74 | 102 | 1.7 | 6.1 | 0.00 | 0.11 | 0.11 | 91 | 1014.6 |
| 20260831132004 | 72 | 105 | 1.7 | 5.2 | 0.00 | 0.11 | 0.11 | 95 | 1014.8 |
| 20260831130004 | 71 | 97 | 2.6 | 4.3 | 0.00 | 0.11 | 0.11 | 95 | 1015.0 |
| 20260831125003 | 71 | 67 | 1.7 | 4.3 | 0.00 | 0.11 | 0.11 | 96 | 1014.9 |
| 20260831123003 | 71 | 78 | 0.9 | 2.6 | 0.00 | 0.11 | 0.11 | 98 | 1015.1 |
| 20260831122004 | 70 | 125 | 1.7 | 4.3 | 0.00 | 0.11 | 0.11 | 99 | 1014.8 |
| 20260831120003 | 70 | 319 | 0.9 | 4.3 | 0.00 | 0.11 | 0.11 | 99 | 1015.1 |
| 20260831115004 | 70 | 130 | 1.7 | 4.3 | 0.00 | 0.11 | 0.11 | 99 | 1014.9 |
| 20260831114004 | 70 | 115 | 2.6 | 6.1 | 0.00 | 0.11 | 0.11 | 99 | 1014.9 |
| 20260831113003 | 69 | 152 | 2.6 | 5.2 | 0.00 | 0.11 | 0.11 | 99 | 1014.8 |
| 20260831112004 | 69 | 115 | 2.6 | 4.3 | 0.00 | 0.11 | 0.11 | 99 | 1015.0 |
| 20260831111004 | 69 | 94 | 2.6 | 4.3 | 0.00 | 0.11 | 0.11 | 99 | 1014.8 |
| 20260831110003 | 69 | 81 | 1.7 | 4.3 | 0.00 | 0.11 | 0.11 | 99 | 1015.1 |
| 20260831103004 | 69 | 103 | 1.7 | 4.3 | 0.04 | 0.11 | 0.11 | 99 | 1015.1 |
| 20260831100004 | 70 | 106 | 1.7 | 6.1 | 0.09 | 0.11 | 0.11 | 99 | 1015.6 |
| 20260831095004 | 70 | 109 | 2.6 | 4.3 | 0.07 | 0.08 | 0.08 | 99 | 1016.0 |
| 20260831094004 | 70 | 95 | 0.9 | 2.6 | 0.06 | 0.07 | 0.07 | 99 | 1016.0 |
| 20260831093004 | 70 | 81 | 2.6 | 2.6 | 0.05 | 0.07 | 0.07 | 99 | 1015.7 |